This is the latest recevied weather packets stored in our database for station/object EA1HTW-13. If no packets are shown the sender has not sent any weather packets the latest 10 day(s).
| Time | Temp. | Humidity | Pressure | Rain* | Wind** | Luminosity | Snow |
|---|---|---|---|---|---|---|---|
| 1777465223 | 20° C | 61% | 999.7 hPa | 0 mm | - | - | - |
| 1777464682 | 20° C | 61% | 999.5 hPa | 0 mm | - | - | - |
| 1777464142 | 20° C | 62% | 999.5 hPa | 0 mm | - | - | - |
| 1777463603 | 20° C | 65% | 999.5 hPa | 0 mm | - | - | - |
| 1777463063 | 19.44° C | 67% | 999.4 hPa | 0 mm | - | - | - |
| 1777462522 | 18.89° C | 69% | 999.5 hPa | 0 mm | - | - | - |
| 1777461983 | 18.89° C | 70% | 999.5 hPa | 0 mm | - | - | - |
| 1777461442 | 18.89° C | 70% | 999.5 hPa | 0 mm | - | - | - |
| 1777460903 | 18.33° C | 70% | 999.4 hPa | 0 mm | - | - | - |
| 1777460363 | 18.89° C | 70% | 999.5 hPa | 0 mm | - | - | - |
| 1777459822 | 18.89° C | 70% | 999.4 hPa | 0 mm | - | - | - |
| 1777459284 | 18.89° C | 70% | 999.5 hPa | 0 mm | - | - | - |
| 1777458743 | 18.33° C | 70% | 999.4 hPa | 0 mm | - | - | - |
| 1777458202 | 18.89° C | 71% | 999.3 hPa | 0 mm | - | - | - |
| 1777457662 | 18.33° C | 72% | 999.2 hPa | 0 mm | - | - | - |
| 1777457122 | 17.78° C | 73% | 999.4 hPa | 0 mm | - | - | - |
| 1777456582 | 17.78° C | 73% | 999.5 hPa | 0 mm | - | - | - |
| 1777456044 | 17.78° C | 72% | 999.5 hPa | 0 mm | - | - | - |
| 1777455502 | 17.78° C | 72% | 999.4 hPa | 0 mm | - | - | - |
| 1777454962 | 17.78° C | 73% | 999.4 hPa | 0 mm | - | - | - |
| 1777454423 | 17.22° C | 76% | 999.5 hPa | 0 mm | - | - | - |
| 1777453882 | 17.22° C | 77% | 999.6 hPa | 0 mm | - | - | - |
| 1777453343 | 17.22° C | 78% | 999.6 hPa | 0 mm | - | - | - |
| 1777452803 | 16.67° C | 78% | 999.5 hPa | 0 mm | - | - | - |
| 1777452263 | 16.67° C | 78% | 999.8 hPa | 0 mm | - | - | - |
* Rain latest hour (hover to see other rain measurements)
** Current wind speed in m/s (hover to see current wind gust speed)